[[[{"header":{"parameterUnit":"kt","parameterCategory":2,"dx":1,"dy":1,"la1":30.253999710083008,"la2":30.299108505249023,"lo1":-89.0895004272461,"lo2":-89.04439544677734,"nx":28,"ny":28,"refTime":"2022-09-21T09:00:00:Z","depth":0,"parameterNumber":1,"parameterNumberName":"U-component_of_WINDS"},"data":[-0.1724,-0.1695,-0.1716,-0.1692,-0.1707,-0.1692,-0.1694,-0.1697,-0.1705,-0.169,-0.1684,-0.1702,-0.1716,-0.1712,-0.1706,-0.1713,-0.1705,-0.168,-0.1691,-0.1791,-0.1805,-0.1819,-0.1825,-0.168,-0.168,-0.1582,-0.1581,-0.1581,-0.1791,-0.1806,-0.1801,-0.1809,-0.1803,-0.1841,-0.185,-0.1841,-0.1828,-0.1838,-0.1835,-0.1822,-0.1815,-0.1839,-0.1834,-0.1818,-0.1832,-0.1814,-0.1812,-0.1812,-0.1921,-0.1928,-0.1802,-0.1802,-0.1802,-0.1802,-0.1803,-0.1803,-0.1919,-0.1902,-0.1919,-0.1913,-0.1924,-0.1929,-0.1915,-0.1937,-0.1931,-0.1931,-0.1958,-0.1942,-0.1955,-0.196,-0.1966,-0.1952,-0.1975,-0.1961,-0.1955,-0.1949,-0.1937,-0.2064,-0.1954,-0.1954,-0.1955,-0.1955,-0.1956,0,-0.2016,-0.2035,-0.2032,-0.2034,-0.2032,-0.2036,-0.2042,-0.2035,-0.2081,-0.2074,-0.2065,-0.2063,-0.2058,-0.205,-0.2051,-0.2061,-0.2092,-0.2102,-0.209,-0.2071,-0.2055,-0.2056,-0.2226,-0.2102,-0.2104,-0.2105,-0.2106,-0.2106,-0.2139,-0.212,-0.2149,-0.2144,-0.2153,-0.2145,-0.2143,-0.2186,-0.2182,-0.2196,-0.2178,-0.2173,-0.2169,-0.2151,-0.2174,-0.217,-0.2184,-0.2134,-0.2183,-0.2169,-0.2175,-0.2172,-0.2167,-0.212,-0.2119,-0.2117,-0.2116,0,-0.2205,-0.2241,-0.2216,-0.2248,-0.2255,-0.223,-0.2256,-0.2241,-0.2265,-0.2246,-0.2244,-0.2279,-0.2269,-0.2302,-0.2298,-0.2314,-0.2267,-0.2286,-0.2262,-0.2265,-0.2218,-0.2219,-0.2073,-0.2053,-0.2213,-0.2211,-0.221,0,-0.2321,-0.2293,-0.2346,-0.233,-0.23,-0.2344,-0.2312,-0.2329,-0.2343,-0.2329,-0.2375,-0.2361,-0.2406,-0.2395,-0.242,-0.2389,-0.2391,-0.2398,-0.2404,-0.239,-0.2388,-0.2382,-0.2385,-0.2426,-0.2427,-0.2428,-0.2428,0,-0.2415,-0.2414,-0.2389,-0.2394,-0.2424,-0.2411,-0.2422,-0.2439,-0.2437,-0.2441,-0.2439,-0.2441,-0.2439,-0.2439,-0.2469,-0.2501,-0.2435,-0.2485,-0.2442,-0.2441,-0.242,-0.2419,-0.2289,-0.2429,-0.2429,-0.243,-0.243,0,-0.2511,-0.2516,-0.2477,-0.2502,-0.25,-0.2484,-0.2488,-0.2483,-0.2497,-0.2512,-0.2515,-0.2547,-0.2528,-0.2574,-0.2546,-0.2578,-0.2573,-0.2582,-0.2579,-0.2573,-0.2621,-0.2534,-0.2414,-0.2398,-0.2575,-0.2576,-0.2577,0,-0.2605,-0.2577,-0.2614,-0.2576,-0.2566,-0.2617,-0.2601,-0.2612,-0.2631,-0.2624,-0.2646,-0.2637,-0.268,-0.2681,-0.2664,-0.2683,-0.2642,-0.2691,-0.2672,-0.2671,-0.2659,-0.2551,-0.252,-0.2438,-0.2594,-0.2592,-0.2591,0,-0.2682,-0.2721,-0.2712,-0.2717,-0.2742,-0.2735,-0.2718,-0.272,-0.2713,-0.2724,-0.2706,-0.27,-0.2728,-0.2731,-0.2758,-0.2738,-0.2671,-0.2772,-0.2772,-0.2747,-0.2607,-0.2578,-0.2564,-0.2693,-0.2691,-0.269,-0.2604,0,-0.2807,-0.2799,-0.2779,-0.2793,-0.2794,-0.2774,-0.281,-0.2806,-0.2832,-0.2852,-0.283,-0.2849,-0.285,-0.2846,-0.2871,-0.2818,-0.283,-0.2862,-0.2903,-0.2834,-0.2806,-0.2795,-0.2942,-0.2944,-0.2945,-0.2946,0,0,-0.2885,-0.2874,-0.2916,-0.2901,-0.2903,-0.2956,-0.293,-0.2939,-0.2955,-0.2954,-0.298,-0.2971,-0.2984,-0.2953,-0.2935,-0.2938,-0.2929,-0.2953,-0.2869,-0.286,-0.2852,-0.2821,-0.281,-0.2948,-0.2949,-0.2949,-0.2949,0,-0.2937,-0.2955,-0.2932,-0.2943,-0.2961,-0.2984,-0.2979,-0.3005,-0.3017,-0.2999,-0.3039,-0.3031,-0.3024,-0.3031,-0.3033,-0.2959,-0.2987,-0.2958,-0.2904,-0.288,-0.287,-0.2861,-0.2828,-0.2817,-0.2953,-0.2952,-0.2952,0,-0.3014,-0.3035,-0.3029,-0.3041,-0.3053,-0.3043,-0.3098,-0.3087,-0.3079,-0.3134,-0.3114,-0.3129,-0.3143,-0.3112,-0.31,-0.3121,-0.3037,-0.3072,-0.3066,-0.3063,-0.3041,-0.3029,-0.3018,-0.3163,-0.3163,-0.3164,0,0,-0.3053,-0.3048,-0.3082,-0.3055,-0.306,-0.3094,-0.3093,-0.3118,-0.3131,-0.3136,-0.3155,-0.3165,-0.3161,-0.3157,-0.3156,-0.3118,-0.3121,-0.3097,-0.3087,-0.3079,-0.3071,-0.3048,-0.3035,-0.3166,-0.3166,-0.3166,0,0,-0.3072,-0.3111,-0.3135,-0.3108,-0.312,-0.315,-0.3131,-0.316,-0.3163,-0.3168,-0.3209,-0.3213,-0.3186,-0.3198,-0.3224,-0.317,-0.3212,-0.3207,-0.3162,-0.315,-0.314,-0.3135,-0.3279,0,0,0,0,0,-0.3142,-0.3106,-0.3128,-0.3129,-0.3144,-0.3139,-0.3141,-0.3174,-0.3202,-0.3186,-0.3206,-0.3239,-0.322,-0.3244,-0.3243,-0.3212,-0.3194,-0.3189,-0.3185,-0.3118,-0.3105,-0.3094,0,0,0,0,0,0,-0.3143,-0.3144,-0.3129,-0.3158,-0.3161,-0.314,-0.3195,-0.3203,-0.3205,-0.3211,-0.3234,-0.324,-0.3267,-0.3246,-0.3245,-0.3215,-0.3279,-0.3192,-0.3188,-0.3184,-0.3114,-0.3103,-0.3094,0,0,0,0,0,-0.3144,-0.3144,-0.316,-0.3158,-0.3161,-0.3197,-0.3197,-0.3204,-0.3205,-0.3237,-0.3244,-0.3231,-0.3265,-0.3266,-0.3246,-0.3215,-0.328,-0.328,-0.319,-0.3186,-0.3183,-0.3109,0,0,0,0,0,0,-0.3144,-0.315,-0.3161,-0.3163,-0.3175,-0.3199,-0.3204,-0.3204,-0.3232,-0.3238,-0.3236,-0.3241,-0.3264,-0.3265,-0.3266,-0.3213,-0.3281,-0.3281,-0.328,-0.3187,-0.3184,-0.3182,0,0,0,0,0,0,-0.315,-0.3152,-0.3162,-0.3181,-0.3186,-0.3201,-0.3205,-0.3193,-0.3232,-0.3229,-0.3234,-0.3238,-0.3262,-0.3263,-0.3264,-0.3244,-0.3282,-0.3281,-0.3281,-0.3281,-0.3185,-0.3183,0,0,0,0,0,0,-0.3151,-0.3153,-0.3181,-0.3184,-0.3188,-0.3215,-0.319,-0.3203,-0.3249,-0.3227,-0.3254,-0.3257,-0.3259,-0.3261,-0.3263,-0.3242,-0.3243,-0.3282,-0.3281,-0.3281,-0.3281,0,0,0,0,0,0,0,-0.3152,-0.3135,-0.3149,-0.3187,-0.3191,-0.3183,-0.3184,-0.3184,-0.325,-0.3252,-0.3254,-0.3256,-0.3285,-0.3284,-0.3284,-0.3241,0,0,-0.3282,-0.3282,0,0,0,0,0,0,0,0,-0.3135,-0.3135,-0.3149,-0.3149,-0.315,-0.3183,-0.3184,-0.3184,-0.325,-0.3252,-0.3253,-0.3255,-0.3285,-0.3284,-0.3284,0,0,0,0,0,0,0,0,0,0,0,0,0,0,0,-0.3149,-0.3149,0,-0.3183,-0.3184,-0.3184,-0.325,-0.3252,-0.3253,-0.3254,-0.3285,-0.3284,-0.3284,0,0,0,0,0,0,0,0,0,0,0,0,0,0,0,0,0,0,0,0,0,0,0,0,0,0,0,0,0,0,0,0,0,0,0,0,0,0,0,0,0,0,0,0,0,0,0,0,0,0,0,0,0,0,0,0,0,0,0,0,0,0,0,0,0,0,0,0,0]}],[{"header":{"parameterUnit":"kt","parameterCategory":2,"dx":1,"dy":1,"la1":30.253999710083008,"la2":30.299108505249023,"lo1":-89.0895004272461,"lo2":-89.04439544677734,"nx":28,"ny":28,"refTime":"2022-09-21T09:00:00:Z","depth":0,"parameterNumber":2,"parameterNumberName":"V-component_of_WINDS"},"data":[-3.4649,-3.47,-3.4719,-3.4784,-3.4812,-3.4859,-3.4882,-3.4912,-3.4941,-3.4998,-3.5033,-3.5055,-3.5089,-3.5134,-3.5172,-3.518,-3.5194,-3.5199,-3.5208,-3.517,-3.5166,-3.5162,-3.5152,-3.5203,-3.5203,-3.5243,-3.5244,-3.5244,-3.462,-3.4649,-3.469,-3.4741,-3.4775,-3.4782,-3.4822,-3.485,-3.4891,-3.4926,-3.4963,-3.5013,-3.5055,-3.5087,-3.5129,-3.5151,-3.5155,-3.5161,-3.5159,-3.5163,-3.5125,-3.5113,-3.5157,-3.5157,-3.5157,-3.5157,-3.5157,-3.5157,-3.4573,-3.4603,-3.4645,-3.4689,-3.472,-3.4754,-3.4784,-3.4811,-3.485,-3.4898,-3.4911,-3.4957,-3.4994,-3.5053,-3.5076,-3.5111,-3.5107,-3.5118,-3.5121,-3.5123,-3.5123,-3.506,-3.5119,-3.5119,-3.5119,-3.5119,-3.5119,0,-3.4543,-3.4557,-3.4597,-3.4643,-3.4675,-3.4712,-3.4748,-3.4767,-3.4799,-3.4829,-3.4874,-3.4902,-3.4957,-3.4999,-3.5042,-3.5064,-3.507,-3.5073,-3.5081,-3.5074,-3.5063,-3.5068,-3.5003,-3.5071,-3.507,-3.507,-3.507,-3.507,-3.4495,-3.4528,-3.4581,-3.4606,-3.4631,-3.4671,-3.4699,-3.4725,-3.4752,-3.4799,-3.4823,-3.4867,-3.4903,-3.4969,-3.4997,-3.5037,-3.504,-3.5064,-3.5046,-3.5039,-3.5038,-3.5035,-3.5038,-3.5066,-3.5066,-3.5067,-3.5067,0,-3.4466,-3.4496,-3.4552,-3.4601,-3.4614,-3.4646,-3.4686,-3.4716,-3.4739,-3.4782,-3.4794,-3.4828,-3.487,-3.4895,-3.4947,-3.4958,-3.5009,-3.5011,-3.4996,-3.4997,-3.502,-3.5017,-3.5093,-3.5103,-3.5052,-3.5053,-3.5053,0,-3.4436,-3.4478,-3.4519,-3.455,-3.4598,-3.4623,-3.4668,-3.4692,-3.4725,-3.476,-3.4773,-3.4805,-3.4831,-3.4866,-3.4883,-3.4929,-3.4939,-3.4949,-3.4952,-3.4947,-3.4945,-3.4959,-3.4956,-3.4961,-3.4961,-3.496,-3.496,0,-3.4385,-3.4457,-3.4509,-3.4529,-3.4584,-3.4607,-3.463,-3.4668,-3.4694,-3.4731,-3.4748,-3.4789,-3.4811,-3.4843,-3.4863,-3.485,-3.492,-3.4906,-3.4931,-3.493,-3.4943,-3.4942,-3.5005,-3.496,-3.4959,-3.4959,-3.4959,0,-3.4364,-3.4404,-3.4475,-3.452,-3.4538,-3.4571,-3.4615,-3.4649,-3.4687,-3.47,-3.473,-3.474,-3.4784,-3.4768,-3.4827,-3.4803,-3.4824,-3.4839,-3.4841,-3.4844,-3.4825,-3.4855,-3.4915,-3.4921,-3.485,-3.4849,-3.4848,0,-3.4298,-3.4377,-3.44,-3.4465,-3.4505,-3.4517,-3.4554,-3.4588,-3.4609,-3.4644,-3.4666,-3.4706,-3.4699,-3.4714,-3.4741,-3.4764,-3.4795,-3.4761,-3.4808,-3.4809,-3.4796,-3.4852,-3.4854,-3.4899,-3.4837,-3.4838,-3.4839,0,-3.425,-3.4317,-3.4327,-3.4352,-3.4402,-3.4435,-3.4478,-3.4523,-3.4545,-3.4582,-3.4617,-3.4674,-3.4671,-3.4696,-3.4708,-3.4734,-3.4775,-3.4727,-3.4728,-3.4733,-3.4834,-3.4835,-3.4843,-3.4777,-3.4779,-3.478,-3.483,0,-3.4209,-3.4252,-3.4282,-3.4335,-3.4365,-3.4408,-3.4435,-3.4463,-3.4473,-3.4493,-3.4546,-3.4579,-3.4623,-3.4638,-3.4647,-3.47,-3.4694,-3.469,-3.4674,-3.4711,-3.4728,-3.4735,-3.4647,-3.4647,-3.4646,-3.4646,0,0,-3.4136,-3.42,-3.4222,-3.4266,-3.4292,-3.4303,-3.4346,-3.4373,-3.4426,-3.4443,-3.4435,-3.4519,-3.4545,-3.4605,-3.4619,-3.4637,-3.4648,-3.4634,-3.4694,-3.4699,-3.4704,-3.4722,-3.4729,-3.4646,-3.4646,-3.4646,-3.4645,0,-3.4127,-3.4158,-3.4201,-3.4231,-3.4274,-3.4295,-3.4305,-3.435,-3.4365,-3.4417,-3.4423,-3.4458,-3.4524,-3.4551,-3.4573,-3.4629,-3.463,-3.464,-3.4661,-3.4691,-3.4696,-3.4701,-3.4719,-3.4726,-3.4645,-3.4645,-3.4645,0,-3.4083,-3.4118,-3.4142,-3.4204,-3.4232,-3.4272,-3.4263,-3.4306,-3.4336,-3.4343,-3.4394,-3.4416,-3.4454,-3.4508,-3.4533,-3.4526,-3.4611,-3.4589,-3.4592,-3.4594,-3.4624,-3.463,-3.4636,-3.4557,-3.4557,-3.4557,0,0,-3.4071,-3.4112,-3.4155,-3.4203,-3.4221,-3.4252,-3.4275,-3.4287,-3.4323,-3.4337,-3.4364,-3.4397,-3.4436,-3.446,-3.4498,-3.4554,-3.4563,-3.4577,-3.4582,-3.4585,-3.4589,-3.4619,-3.4626,-3.4555,-3.4555,-3.4555,0,0,-3.4064,-3.4117,-3.4121,-3.4181,-3.4216,-3.426,-3.4288,-3.4293,-3.433,-3.4327,-3.4347,-3.4357,-3.4408,-3.4428,-3.4405,-3.4492,-3.4476,-3.4482,-3.4477,-3.4482,-3.4486,-3.4479,-3.4398,0,0,0,0,0,-3.4068,-3.4111,-3.4114,-3.4128,-3.4205,-3.4259,-3.4269,-3.4287,-3.4276,-3.4298,-3.4321,-3.4321,-3.442,-3.44,-3.4413,-3.4438,-3.4535,-3.4539,-3.4542,-3.4548,-3.4554,-3.4559,0,0,0,0,0,0,-3.4074,-3.4091,-3.4113,-3.4159,-3.4177,-3.4257,-3.4242,-3.4249,-3.4274,-3.4274,-3.4317,-3.4323,-3.4338,-3.4395,-3.4406,-3.4429,-3.4395,-3.4537,-3.454,-3.4542,-3.455,-3.4555,-3.4559,0,0,0,0,0,-3.4078,-3.4092,-3.4211,-3.4159,-3.4174,-3.4209,-3.4241,-3.4246,-3.4266,-3.4302,-3.4308,-3.4278,-3.4339,-3.4349,-3.4401,-3.4424,-3.4387,-3.4391,-3.4539,-3.4541,-3.4543,-3.4553,0,0,0,0,0,0,-3.4082,-3.4097,-3.4215,-3.422,-3.4144,-3.4205,-3.4216,-3.4244,-3.4293,-3.4299,-3.4264,-3.4263,-3.4339,-3.4347,-3.4355,-3.4421,-3.4381,-3.4385,-3.4388,-3.454,-3.4542,-3.4544,0,0,0,0,0,0,-3.4089,-3.4101,-3.4217,-3.4198,-3.4201,-3.4201,-3.4211,-3.4257,-3.4293,-3.4252,-3.4253,-3.4263,-3.4326,-3.4346,-3.4352,-3.4425,-3.4376,-3.438,-3.4383,-3.4385,-3.4542,-3.4543,0,0,0,0,0,0,-3.4095,-3.4105,-3.4197,-3.4199,-3.4202,-3.4262,-3.4243,-3.432,-3.4279,-3.4249,-3.4276,-3.4274,-3.4325,-3.4332,-3.4351,-3.442,-3.4423,-3.4377,-3.4379,-3.4381,-3.4382,0,0,0,0,0,0,0,-3.4099,-3.4027,-3.4184,-3.42,-3.4202,-3.4268,-3.427,-3.4271,-3.4279,-3.4277,-3.4276,-3.4275,-3.4354,-3.4358,-3.4363,-3.4416,0,0,-3.4376,-3.4378,0,0,0,0,0,0,0,0,-3.4023,-3.4026,-3.4184,-3.4185,-3.4186,-3.4269,-3.427,-3.4271,-3.4278,-3.4277,-3.4276,-3.4275,-3.4355,-3.4359,-3.4362,0,0,0,0,0,0,0,0,0,0,0,0,0,0,0,-3.4184,-3.4185,0,-3.4269,-3.427,-3.4271,-3.4278,-3.4277,-3.4277,-3.4276,-3.4356,-3.4359,-3.4362,0,0,0,0,0,0,0,0,0,0,0,0,0,0,0,0,0,0,0,0,0,0,0,0,0,0,0,0,0,0,0,0,0,0,0,0,0,0,0,0,0,0,0,0,0,0,0,0,0,0,0,0,0,0,0,0,0,0,0,0,0,0,0,0,0,0,0,0,0]}]]]